TimePST,TemperatureF,Dew PointF,Humidity,Sea Level PressureIn,VisibilityMPH,Wind Direction,Wind SpeedMPH,Gust SpeedMPH,PrecipitationIn,Events,Conditions,WindDirDegrees,DateUTC
12:53 AM,48.9,39.9,71,30.07,10.0,Calm,Calm,-,N/A,,Clear,0,2012-11-06 08:53:00
1:53 AM,48.9,42.1,77,30.08,10.0,Calm,Calm,-,N/A,,Clear,0,2012-11-06 09:53:00
2:53 AM,46.0,39.0,76,30.08,10.0,Calm,Calm,-,N/A,,Clear,0,2012-11-06 10:53:00
3:53 AM,46.9,39.9,77,30.08,10.0,Calm,Calm,-,N/A,,Clear,0,2012-11-06 11:53:00
4:53 AM,46.0,39.9,79,30.09,10.0,Calm,Calm,-,N/A,,Clear,0,2012-11-06 12:53:00
5:53 AM,43.0,39.0,86,30.09,10.0,NE,3.5,-,N/A,,Clear,50,2012-11-06 13:53:00
6:53 AM,44.1,37.9,79,30.10,10.0,Calm,Calm,-,N/A,,Clear,0,2012-11-06 14:53:00
7:53 AM,50.0,41.0,71,30.12,10.0,Calm,Calm,-,N/A,,Clear,0,2012-11-06 15:53:00
8:53 AM,55.9,43.0,62,30.11,10.0,Calm,Calm,-,N/A,,Clear,0,2012-11-06 16:53:00
9:53 AM,64.0,43.0,46,30.10,10.0,Calm,Calm,-,N/A,,Clear,0,2012-11-06 17:53:00
10:53 AM,71.1,42.1,35,30.07,10.0,Calm,Calm,-,N/A,,Clear,0,2012-11-06 18:53:00
11:53 AM,78.1,41.0,27,30.04,10.0,Calm,Calm,-,N/A,,Clear,0,2012-11-06 19:53:00
12:53 PM,84.9,39.9,20,30.00,10.0,Calm,Calm,-,N/A,,Clear,0,2012-11-06 20:53:00
1:53 PM,89.1,30.9,12,29.98,10.0,WSW,5.8,-,N/A,,Clear,240,2012-11-06 21:53:00
2:53 PM,90.0,36.0,15,29.97,10.0,SSW,11.5,-,N/A,,Clear,200,2012-11-06 22:53:00
3:53 PM,84.9,36.0,17,29.97,10.0,SSW,11.5,-,N/A,,Clear,200,2012-11-06 23:53:00
4:53 PM,80.1,36.0,20,29.97,10.0,SSW,9.2,-,N/A,,Clear,200,2012-11-07 00:53:00
5:53 PM,73.9,36.0,25,29.99,10.0,South,8.1,-,N/A,,Clear,180,2012-11-07 01:53:00
6:53 PM,70.0,33.1,26,30.01,10.0,SSE,4.6,-,N/A,,Clear,150,2012-11-07 02:53:00
7:53 PM,63.0,34.0,34,30.02,10.0,South,3.5,-,N/A,,Clear,170,2012-11-07 03:53:00
8:53 PM,60.1,33.1,36,30.04,10.0,Calm,Calm,-,N/A,,Clear,0,2012-11-07 04:53:00
9:53 PM,55.9,34.0,44,30.05,10.0,Calm,Calm,-,N/A,,Clear,0,2012-11-07 05:53:00
10:53 PM,53.1,33.1,47,30.06,10.0,Calm,Calm,-,N/A,,Clear,0,2012-11-07 06:53:00
11:53 PM,51.1,32.0,48,30.05,10.0,ESE,3.5,-,N/A,,Clear,120,2012-11-07 07:53:00